Location: Betz
(49.1556°N, 2.9558°E)
Time: 20:48:04
(UTC+00:00)

Cosmos 2297 Rocket - Pass Details

Date: 18 September 2019
Orbit: 841 x 842 km, 71.0° (Epoch: 17 October)

Event Time Altitude Azimuth Distance (km) Brightness Sun altitude
Rises 20:55:57 0° 223° (SW) 3,389 5.4 -27.8°
Reaches altitude 10° 20:58:28 10° 229° (SW) 2,458 4.7 -28.1°
Maximum altitude 21:03:57 51° 305° (NW) 1,051 2.9 -28.8°
Drops below altitude 10° 21:09:29 10° 21° (NNE) 2,472 4.9 -29.4°
Sets 21:12:01 0° 27° (NNE) 3,410 5.6 -29.7°
